Weather History for Burlington, VT

Change the Weather History Date:

Monday, March 18, 2013

  Actual Average Record
Temperature  
Mean Temperature 21 °F 32 °F  
Max Temperature 33 °F 41 °F 76 °F (2012)
Min Temperature 8 °F 23 °F -7 °F (1961)
Degree Days  
Heating Degree Days 44 33  
Month to date heating degree days 606 660  
Since 1 July heating degree days 5484 6070  
Cooling Degree Days 0 0  
Month to date cooling degree days 0 0  
Year to date cooling degree days 0 0  
Moisture  
Dew Point 5 °F    
Average Humidity 53    
Maximum Humidity 80    
Minimum Humidity 25    
Precipitation  
Precipitation 0.01 in 0.08 in 0.74 in (1928)
Month to date precipitation 1.37 1.24  
Year to date precipitation 3.80 5.06  
Snow  
Snow 0.00 in 0.50 in 11.40 in (1928)
Month to date snowfall 6.4 10.7  
Since 1 July snowfall 72.1 71.5  
Snow Depth 0.00 in    
Sea Level Pressure  
Sea Level Pressure 30.34 in    
Wind  
Wind Speed 3 mph (WSW)    
Max Wind Speed 12 mph    
Max Gust Speed 17 mph    
Visibility 10 miles    
Events      
T = Trace of Precipitation, MM = Missing Value Source: NWS Daily Summary

Daily Weather History Graph

Daily Weather History Graph

Search for Another Location

Airport:

Trip Planner

Search our weather history database for the weather conditions in past years. The results will help you decide how hot, cold, wet, or windy it might be!

Date:

Astronomy

Mar. 18, 2013 Rise Set
Actual Time 6:59 AM EDT 7:02 PM EDT
Civil Twilight 6:30 AM EDT 7:31 PM EDT
Nautical Twilight 5:56 AM EDT 8:05 PM EDT
Astronomical Twilight 5:21 AM EDT 8:40 PM EDT
Moon 10:43 AM EDT (3/18) 1:12 AM EDT (3/18)
Length of Visible Light 13h 01m
Length of Day
12h 03m
Waxing Crescent, 40% of the Moon is Illuminated
Mar 18
Waxing Crescent
Mar 19
First Quarter
Mar 27
Full
Apr 3
Last Quarter
Apr 10
New

Hourly Weather History & Observations

Time (EDT) Temp. Windchill Dew Point Humidity Pressure Visibility Wind Dir Wind Speed Gust Speed Precip Events Conditions
12:54 AM 14.0 °F - 3.0 °F 62% 30.39 in 10.0 mi Calm Calm - N/A   Clear
1:54 AM 12.0 °F - 3.9 °F 70% 30.41 in 10.0 mi Calm Calm - N/A   Clear
2:54 AM 10.9 °F - 3.9 °F 73% 30.40 in 10.0 mi Calm Calm - N/A   Clear
3:54 AM 10.0 °F 3.6 °F 3.0 °F 73% 30.40 in 10.0 mi East 3.5 mph - N/A   Clear
4:54 AM 9.0 °F - 3.0 °F 77% 30.41 in 10.0 mi Calm Calm - N/A   Clear
5:54 AM 9.0 °F - 1.9 °F 73% 30.43 in 10.0 mi Calm Calm - N/A   Clear
6:54 AM 8.1 °F - 1.9 °F 76% 30.45 in 10.0 mi Calm Calm - N/A   Clear
7:54 AM 10.0 °F - 3.0 °F 73% 30.46 in 10.0 mi Calm Calm - N/A   Clear
8:54 AM 17.1 °F - 6.1 °F 62% 30.46 in 10.0 mi Calm Calm - N/A   Clear
9:54 AM 21.9 °F - 3.0 °F 44% 30.46 in 10.0 mi Calm Calm - N/A   Clear
10:54 AM 25.0 °F 18.1 °F 1.0 °F 36% 30.45 in 10.0 mi SSW 5.8 mph - N/A   Clear
11:54 AM 26.1 °F - -0.9 °F 31% 30.43 in 10.0 mi Calm Calm - N/A   Clear
12:54 PM 30.0 °F 25.2 °F -2.0 °F 25% 30.40 in 10.0 mi Variable 4.6 mph - N/A   Clear
1:54 PM 32.0 °F 27.5 °F -0.0 °F 26% 30.37 in 10.0 mi Variable 4.6 mph - N/A   Clear
2:54 PM 33.1 °F 26.1 °F 5.0 °F 31% 30.33 in 10.0 mi WSW 8.1 mph - N/A   Clear
3:54 PM 32.0 °F 27.5 °F 6.1 °F 34% 30.30 in 10.0 mi West 4.6 mph - N/A   Clear
4:54 PM 30.9 °F - 6.1 °F 35% 30.27 in 10.0 mi Calm Calm - N/A   Scattered Clouds
5:54 PM 30.9 °F 26.2 °F 7.0 °F 37% 30.23 in 10.0 mi North 4.6 mph - N/A   Clear
6:54 PM 28.9 °F 25.2 °F 8.1 °F 41% 30.21 in 10.0 mi NW 3.5 mph - N/A   Clear
7:54 PM 28.9 °F - 8.1 °F 41% 30.21 in 10.0 mi Calm Calm - N/A   Clear
8:54 PM 28.0 °F 24.2 °F 10.0 °F 47% 30.17 in 10.0 mi NE 3.5 mph - N/A   Scattered Clouds
9:54 PM 28.9 °F - 10.0 °F 45% 30.17 in 10.0 mi Calm Calm - N/A   Overcast
10:54 PM 28.9 °F 22.8 °F 12.9 °F 51% 30.13 in 10.0 mi South 5.8 mph - N/A   Overcast
11:54 PM 30.9 °F 24.3 °F 12.0 °F 46% 30.12 in 10.0 mi SSE 6.9 mph - N/A   Overcast